TimeAKDT,TemperatureF,Dew PointF,Humidity,Sea Level PressureIn,VisibilityMPH,Wind Direction,Wind SpeedMPH,Gust SpeedMPH,PrecipitationIn,Events,Conditions,WindDirDegrees,DateUTC
12:54 AM,32.0,14.0,48,30.22,10.0,NW,12.7,20.7,N/A,,Clear,310,2012-10-23 08:54:00
1:54 AM,30.9,14.0,50,30.22,10.0,NW,13.8,-,N/A,,Clear,320,2012-10-23 09:54:00
2:54 AM,30.9,14.0,50,30.22,10.0,NW,15.0,-,N/A,,Clear,310,2012-10-23 10:54:00
3:54 AM,30.0,14.0,51,30.22,10.0,NW,13.8,-,N/A,,Clear,310,2012-10-23 11:54:00
4:54 AM,30.9,14.0,50,30.22,10.0,WNW,13.8,-,N/A,,Clear,300,2012-10-23 12:54:00
5:54 AM,30.9,14.0,50,30.23,10.0,WNW,15.0,-,N/A,,Clear,300,2012-10-23 13:54:00
6:54 AM,30.9,14.0,50,30.24,10.0,WNW,16.1,-,N/A,,Clear,300,2012-10-23 14:54:00
7:54 AM,30.9,12.9,47,30.25,10.0,NW,12.7,-,N/A,,Clear,310,2012-10-23 15:54:00
8:54 AM,32.0,14.0,48,30.26,10.0,NW,15.0,21.9,N/A,,Clear,310,2012-10-23 16:54:00
9:54 AM,32.0,15.1,50,30.26,10.0,NW,13.8,21.9,N/A,,Clear,320,2012-10-23 17:54:00
10:54 AM,32.0,16.0,52,30.26,10.0,WNW,13.8,-,N/A,,Clear,300,2012-10-23 18:54:00
11:54 AM,35.1,15.1,44,30.26,10.0,WNW,13.8,-,N/A,,Clear,300,2012-10-23 19:54:00
12:54 PM,37.0,15.1,41,30.25,10.0,NW,15.0,-,N/A,,Clear,310,2012-10-23 20:54:00
1:54 PM,39.0,15.1,38,30.25,10.0,WNW,13.8,-,N/A,,Clear,300,2012-10-23 21:54:00
2:54 PM,39.9,16.0,38,30.24,10.0,WNW,11.5,-,N/A,,Clear,290,2012-10-23 22:54:00
3:54 PM,37.9,15.1,39,30.24,10.0,WNW,9.2,-,N/A,,Clear,300,2012-10-23 23:54:00
4:54 PM,35.1,17.1,48,30.25,10.0,Calm,Calm,-,N/A,,Clear,0,2012-10-24 00:54:00
5:54 PM,36.0,16.0,44,30.25,10.0,WNW,5.8,18.4,N/A,,Clear,290,2012-10-24 01:54:00
6:54 PM,30.9,18.0,59,30.27,10.0,WNW,10.4,-,N/A,,Clear,300,2012-10-24 02:54:00
7:54 PM,34.0,17.1,50,30.28,10.0,NW,8.1,-,N/A,,Clear,320,2012-10-24 03:54:00
8:54 PM,35.1,16.0,46,30.28,10.0,NW,9.2,-,N/A,,Clear,320,2012-10-24 04:54:00
10:54 PM,33.1,15.1,48,30.30,10.0,NNW,9.2,19.6,N/A,,Clear,330,2012-10-24 06:54:00
11:54 PM,33.1,15.1,48,30.30,10.0,NW,11.5,-,N/A,,Clear,320,2012-10-24 07:54:00